• In Colombia
  • List of Countries
  • For 7 days
  • Water Temperature
  • Weather Map
  • Weather Widgets
  • user-avatar
    Login

    Hourly Weather Fier

    Today, 30 March, Monday

    Time Temperature Precipitation Wind Pressure Humidity
    00:00 +11°C° 0 mm 1 mps 758 mmHg 85%
    01:00 +11°C° 0 mm 1 mps 757 mmHg 85%
    02:00 +11°C° 0 mm 1 mps 757 mmHg 85%
    03:00 +11°C° 0 mm 1 mps 757 mmHg 85%
    04:00 +10°C° 0 mm 1 mps 757 mmHg 85%
    05:00 +11°C° 0 mm 1 mps 757 mmHg 82%
    06:00 +12°C° 0 mm 1 mps 757 mmHg 78%
    07:00 +13°C° 0 mm 1 mps 757 mmHg 74%
    08:00 +15°C° 0 mm 1 mps 757 mmHg 67%
    09:00 +16°C° 0 mm 1 mps 757 mmHg 59%
    10:00 +19°C° 0 mm 1 mps 757 mmHg 52%
    11:00 +18°C° 0.1 mm 2 mps 757 mmHg 52%
    12:00 +19°C° 0.1 mm 2 mps 757 mmHg 53%
    13:00 +19°C° 0 mm 3 mps 756 mmHg 51%
    14:00 +19°C° 0.3 mm 3 mps 756 mmHg 55%
    15:00 +18°C° 0.3 mm 3 mps 756 mmHg 59%
    16:00 +17°C° 0.3 mm 3 mps 755 mmHg 63%
    17:00 +16°C° 0.1 mm 2 mps 756 mmHg 67%
    18:00 +15°C° 0.1 mm 1 mps 756 mmHg 71%
    19:00 +14°C° 0.1 mm 1 mps 756 mmHg 75%
    20:00 +14°C° 0 mm 1 mps 757 mmHg 75%
    21:00 +13°C° 0 mm 1 mps 757 mmHg 75%
    22:00 +13°C° 0 mm 1 mps 757 mmHg 75%
    23:00 +13°C° 0 mm 1 mps 757 mmHg 74%

    Tomorrow, 31 March, Tuesday

    Time Temperature Precipitation Wind Pressure Humidity
    00:00 +13°C° 0 mm 1 mps 757 mmHg 74%
    01:00 +13°C° 0 mm 1 mps 757 mmHg 74%
    02:00 +12°C° 0 mm 1 mps 757 mmHg 73%
    03:00 +12°C° 0 mm 1 mps 758 mmHg 73%
    04:00 +12°C° 0 mm 1 mps 758 mmHg 73%
    05:00 +13°C° 0 mm 1 mps 758 mmHg 72%
    06:00 +13°C° 0 mm 1 mps 758 mmHg 71%
    07:00 +14°C° 0 mm 2 mps 758 mmHg 70%
    08:00 +15°C° 0 mm 2 mps 758 mmHg 65%
    09:00 +17°C° 0 mm 2 mps 758 mmHg 60%
    10:00 +18°C° 0 mm 2 mps 758 mmHg 54%
    11:00 +18°C° 0.3 mm 3 mps 758 mmHg 56%
    12:00 +16°C° 0.3 mm 5 mps 758 mmHg 58%
    13:00 +16°C° 0.3 mm 6 mps 758 mmHg 59%
    14:00 +16°C° 0.1 mm 6 mps 758 mmHg 60%
    15:00 +15°C° 0.1 mm 6 mps 758 mmHg 61%
    16:00 +15°C° 0.1 mm 5 mps 758 mmHg 62%
    17:00 +13°C° 0 mm 4 mps 758 mmHg 67%
    18:00 +12°C° 0 mm 4 mps 758 mmHg 73%
    19:00 +11°C° 0 mm 3 mps 759 mmHg 78%
    20:00 +11°C° 0 mm 3 mps 759 mmHg 80%
    21:00 +11°C° 0 mm 3 mps 759 mmHg 81%
    22:00 +12°C° 0 mm 2 mps 759 mmHg 83%
    23:00 +10°C° 0.6 mm 3 mps 759 mmHg 86%

    Day after tomorrow, 1 April, Wednesday

    Time Temperature Precipitation Wind Pressure Humidity
    00:00 +10°C° 0.6 mm 3 mps 759 mmHg 89%
    01:00 +10°C° 0.6 mm 3 mps 759 mmHg 92%
    02:00 +10°C° 0.4 mm 3 mps 758 mmHg 92%
    03:00 +10°C° 0.4 mm 2 mps 758 mmHg 92%
    04:00 +11°C° 0.4 mm 1 mps 758 mmHg 92%
    05:00 +9°C° 1.1 mm 2 mps 758 mmHg 92%
    06:00 +8°C° 1.1 mm 4 mps 758 mmHg 93%
    07:00 +8°C° 1.1 mm 5 mps 757 mmHg 93%
    08:00 +7°C° 2.3 mm 4 mps 757 mmHg 93%
    09:00 +8°C° 2.3 mm 3 mps 757 mmHg 92%
    10:00 +7°C° 2.3 mm 2 mps 757 mmHg 92%
    11:00 +7°C° 1.1 mm 2 mps 757 mmHg 91%
    12:00 +7°C° 1.1 mm 2 mps 757 mmHg 89%
    13:00 +7°C° 1.1 mm 2 mps 757 mmHg 88%
    14:00 +7°C° 0.6 mm 3 mps 757 mmHg 87%
    15:00 +7°C° 0.6 mm 3 mps 757 mmHg 86%
    16:00 +7°C° 0.6 mm 3 mps 757 mmHg 86%
    17:00 +6°C° 0.1 mm 4 mps 757 mmHg 86%
    18:00 +5°C° 0.1 mm 4 mps 757 mmHg 86%
    19:00 +5°C° 0.1 mm 4 mps 758 mmHg 86%
    20:00 +5°C° 0.1 mm 3 mps 758 mmHg 86%
    21:00 +5°C° 0.1 mm 3 mps 759 mmHg 86%
    22:00 +5°C° 0.1 mm 3 mps 759 mmHg 87%
    23:00 +6°C° 0 mm 2 mps 759 mmHg 87%

    2 April, Thursday

    Time Temperature Precipitation Wind Pressure Humidity
    00:00 +5°C° 0 mm 2 mps 759 mmHg 88%
    01:00 +5°C° 0 mm 2 mps 759 mmHg 89%
    02:00 +5°C° 0 mm 2 mps 759 mmHg 89%
    03:00 +4°C° 0 mm 2 mps 759 mmHg 88%
    04:00 +4°C° 0 mm 2 mps 759 mmHg 88%
    05:00 +5°C° 0 mm 2 mps 759 mmHg 85%
    06:00 +5°C° 0 mm 2 mps 759 mmHg 82%
    07:00 +6°C° 0 mm 2 mps 760 mmHg 80%
    08:00 +8°C° 0 mm 2 mps 760 mmHg 73%
    09:00 +9°C° 0 mm 2 mps 759 mmHg 67%
    10:00 +12°C° 0 mm 2 mps 759 mmHg 61%
    11:00 +11°C° 0 mm 3 mps 759 mmHg 61%
    12:00 +12°C° 0 mm 3 mps 759 mmHg 60%
    13:00 +13°C° 0 mm 4 mps 759 mmHg 60%
    14:00 +12°C° 0 mm 4 mps 759 mmHg 62%
    15:00 +12°C° 0 mm 4 mps 759 mmHg 64%
    16:00 +12°C° 0 mm 4 mps 758 mmHg 66%
    17:00 +11°C° 0 mm 3 mps 759 mmHg 70%
    18:00 +9°C° 0 mm 2 mps 759 mmHg 75%
    19:00 +9°C° 0 mm 1 mps 759 mmHg 80%
    20:00 +9°C° 0 mm 1 mps 759 mmHg 80%
    21:00 +9°C° 0 mm 1 mps 760 mmHg 81%
    22:00 +8°C° 0 mm 1 mps 760 mmHg 81%
    23:00 +8°C° 0 mm 1 mps 760 mmHg 81%

    3 April, Friday

    Time Temperature Precipitation Wind Pressure Humidity
    00:00 +8°C° 0 mm 1 mps 760 mmHg 81%
    01:00 +8°C° 0 mm 1 mps 760 mmHg 81%
    02:00 +8°C° 0 mm 1 mps 760 mmHg 81%
    03:00 +8°C° 0 mm 1 mps 760 mmHg 82%
    04:00 +8°C° 0 mm 1 mps 760 mmHg 83%
    05:00 +9°C° 0 mm 1 mps 760 mmHg 80%
    06:00 +10°C° 0 mm 1 mps 760 mmHg 77%
    07:00 +10°C° 0 mm 1 mps 760 mmHg 75%
    08:00 +12°C° 0 mm 1 mps 760 mmHg 70%
    09:00 +13°C° 0 mm 1 mps 760 mmHg 65%
    10:00 +15°C° 0 mm 1 mps 760 mmHg 60%
    11:00 +15°C° 0 mm 2 mps 760 mmHg 61%
    12:00 +16°C° 0 mm 2 mps 760 mmHg 61%
    13:00 +16°C° 0 mm 3 mps 760 mmHg 61%
    14:00 +16°C° 0 mm 3 mps 760 mmHg 64%
    15:00 +14°C° 0 mm 3 mps 759 mmHg 66%
    16:00 +14°C° 0 mm 3 mps 759 mmHg 69%
    17:00 +12°C° 0 mm 3 mps 759 mmHg 73%
    18:00 +12°C° 0 mm 2 mps 760 mmHg 78%
    19:00 +10°C° 0 mm 2 mps 760 mmHg 82%
    20:00 +10°C° 0 mm 2 mps 760 mmHg 82%
    21:00 +10°C° 0 mm 2 mps 761 mmHg 82%
    22:00 +9°C° 0 mm 2 mps 761 mmHg 82%
    23:00 +9°C° 0 mm 2 mps 761 mmHg 82%

    4 April, Saturday

    Time Temperature Precipitation Wind Pressure Humidity
    00:00 +9°C° 0 mm 3 mps 761 mmHg 82%
    01:00 +9°C° 0 mm 3 mps 761 mmHg 82%
    02:00 +9°C° 0 mm 3 mps 761 mmHg 81%
    03:00 +8°C° 0 mm 3 mps 761 mmHg 79%
    04:00 +7°C° 0 mm 4 mps 760 mmHg 77%
    05:00 +8°C° 0 mm 4 mps 760 mmHg 75%
    06:00 +10°C° 0 mm 4 mps 760 mmHg 74%
    07:00 +11°C° 0 mm 4 mps 760 mmHg 72%
    08:00 +13°C° 0 mm 5 mps 760 mmHg 64%
    09:00 +15°C° 0 mm 5 mps 760 mmHg 57%
    10:00 +17°C° 0 mm 6 mps 760 mmHg 49%
    11:00 +17°C° 0 mm 6 mps 760 mmHg 47%
    12:00 +19°C° 0 mm 6 mps 760 mmHg 46%
    13:00 +20°C° 0 mm 6 mps 760 mmHg 44%
    14:00 +19°C° 0 mm 6 mps 759 mmHg 45%
    15:00 +19°C° 0 mm 6 mps 759 mmHg 46%
    16:00 +17°C° 0 mm 6 mps 759 mmHg 48%
    17:00 +16°C° 0 mm 6 mps 760 mmHg 51%
    18:00 +14°C° 0 mm 6 mps 760 mmHg 54%
    19:00 +13°C° 0 mm 5 mps 761 mmHg 57%
    20:00 +12°C° 0 mm 5 mps 761 mmHg 59%
    21:00 +12°C° 0 mm 5 mps 762 mmHg 61%
    22:00 +11°C° 0 mm 4 mps 762 mmHg 64%
    23:00 +11°C° 0 mm 4 mps 762 mmHg 65%
    Show more